Orbital Elements at Epoch 2459200.5 (2020-Dec-17.0) TDB
Reference: JPL 12 (heliocentric ecliptic J2000)
Element | Value | Uncertainty (1-sigma) | Units |
e | .1214849529128067 | 5.5577e-08 | |
a | 2.643014126608759 | 2.4373e-08 | au |
q | 2.321927679889811 | 1.5907e-07 | au |
i | 4.442835656680795 | 7.6279e-06 | deg |
node | 186.9044220796356 | 8.5907e-05 | deg |
peri | 233.2278276663546 | 9.432e-05 | deg |
M | 300.8672942669044 | 4.1621e-05 | deg |
tp | 2459458.294058735556 (2021-Aug-31.79405874) | 0.00018329 | TDB |
period | 1569.450611032303 4.30 | 2.1709e-05 5.944e-08 | d yr |
n | .2293796297057164 | 3.1729e-09 | deg/d |
Q | 2.964100573327707 | 2.7334e-08 | au |
|
| | Orbit Determination Parameters
Additional Information
|